COSMOS 2251 DEB, 47048

Orbit data source: Space-Track

COSMOS 2251 DEB, 47048 is space debris in LEO originally from a launch on Wed, 16 Jun 1993 UTC launched from the Plesetsk Missile And Space Complex (PKMTR). The debris from Iridium 33, an American commercial communications satellite, has been tracked extensively since its accidental collision with the defunct Russian satellite Cosmos 2251 in 2009. This event, occurring at high speed in low Earth orbit (LEO), generated thousands of pieces of space debris, significantly increasing the risk of further collisions. The Iridium 33 debris cloud has impacted space traffic management and orbital debris mitigation strategies, making it a subject of ongoing study in space situational awareness.

Loading next visibility...
COSMOS 2251 DEB details
Identifier
47048, 1993-036BXC
Orbit
LEO
Last TLE update3 days ago
Origin
Flag of CISKVR (CIS)
ManufacturerUnknown
MissionSpacecraft
Bus & MotorUnknown
MassUnknown
Launch date (UTC)
1993-06-16 (31 years ago)
Launch vehicleUnknown
Launch site
Plesetsk Missile And Space Complex (PKMTR)
Object type
Payload
Rocket body
Debris
Shape & HBRUnknown
Radar Cross SectionSmall (<0.1 m²)

Expand to show TLE details & history

TLE from 3 days ago
0 COSMOS 2251 DEB
1 47048U 93036BXC 24346.13064895  .00007275  00000-0  17866-2 0  9990
2 47048  73.9774 289.5163 0150291 203.2094 168.3456 14.45849363674764
Epoch: 2024-12-11T03:08Z
Definitive object data (Epoch: 2024-12-11T03:08:08.069Z)
Latitude11.38717°
Longitude165.45114°
Altitude845.941 km
Speed7.376 km/s
True Right ascension19h 31m 15s
True Declination11° 19' 18"
Sunlit
Object was in daylight at TLE epoch
Visualization TLE readout
Latitude-74.05716°
Longitude67.21923°
Altitude734.024 km
Speed7.504 km/s
Apparent Right ascension15h 07m 02s
Apparent Declination-59° 22' 40"
Sunlit
Object is in daylight
Visualization observer readout
Local Sidereal Time03:56:13
Azimuth162.338° S
Elevation-69.052°
Doppler factor1
Orbital elements
Apogee altitude843.787 km
Perigee altitude629.923 km
Semi-major axis7,114.992 km
Eccentricity0.0150291
Inclination73.9774°
RAAN289.5163°
Arg. of periapsis203.2094°
True anomaly168.68721°
Mean anomaly168.3456°
Eccentric anomaly168.51703°
Mean motion3.61644 °/min
BSTAR0.0017866
Orbital period99.55 mins
Loading maneuver chart data...

COSMOS 2251 DEB Visibility forecast

Observer location: undefined°, undefined

Span
Click to sort rows by Start time (UTC) header in descending order
Start Az.
Max El. time (UTC)
Max El. Az.
Max El.
End time (UTC)
End Az.
7 mins2024-12-14 06:22:10.526Z8.539° NNE2024-12-14 06:26:10.526Z67.964° E22.244°2024-12-14 06:29:10.526Z111.623° ESE
7 mins2024-12-14 08:04:10.526Z314.152° NW2024-12-14 08:07:10.526Z261.88° W28.551°2024-12-14 08:11:10.526Z197.166° SSW
10 mins2024-12-14 20:52:10.526Z186.988° SSW2024-12-14 20:57:10.526Z74.671° E42.64°2024-12-14 21:02:10.526Z23.88° NE
6 mins2024-12-14 22:36:10.526Z272.615° WNW2024-12-14 22:39:10.526Z309.408° NW16.345°2024-12-14 22:42:10.526Z343.068° N
|